Regional Weather Roundup
Issued by NWS

Home | Current Version | Previous Version | Text Only | Print | Product List | Glossary On
Versions: 1 2 3 4 5 6 7 8 9 10 11 12 13 14 15 16 17 18 19 20 21 22 23 24 25 26 27 28 29 30 31 32 33 34 35 36 37 38 39 40 41 42 43 44 45 46 47 48 49 50
000
ASUS43 KTOP 272308
RWRKS

WEATHER ROUNDUP FOR KANSAS
NATIONAL WEATHER SERVICE GOODLAND KS
600 PM CDT MON APR 27 2015

NOTE:  "FAIR" INDICATES FEW OR NO CLOUDS BELOW 12,000 FEET WITH NO
SIGNIFICANT WEATHER AND/OR OBSTRUCTIONS TO VISIBILITY.

KSZ001>006-013>018-027>032-041>047-280000-
NORTHWEST KANSAS

CITY           SKY/WX    TMP DP  RH WIND       PRES   REMARKS
GOODLAND       PTSUNNY   58  31  35 NE15G24   30.18S
HAYS           SUNNY     63  34  34 NE20G26   30.10S
HILL CITY      MOSUNNY   62  32  32 NE18G25   30.14S
RUSSELL        SUNNY     63  34  33 NE20G31   30.08F
$$

KSZ061>065-074>080-084>089-280000-
SOUTHWEST KANSAS

CITY           SKY/WX    TMP DP  RH WIND       PRES   REMARKS
DODGE CITY     CLOUDY    57  32  38 NE22G28   30.09R
ELKHART          N/A     47  35  63 N12         N/A
GARDEN CITY    CLOUDY    55  26  32 NE25      30.10R
GREAT BEND     MOSUNNY   63  37  39 NE22      30.08R
LIBERAL        CLOUDY    46  37  71 NE8G16    30.12R
PRATT          CLOUDY    59  32  36 NE17      30.08R
$$

KSZ066>073-081>083-090>101-280000-
SOUTHEAST KANSAS

CITY           SKY/WX    TMP DP  RH WIND       PRES   REMARKS
CHANUTE        PTSUNNY   63  36  36 NE18G28   29.99S
COFFEYVILLE    CLOUDY    63  37  38 NE16G24   29.97R
HUTCHINSON     PTSUNNY   65  37  35 NE16G26   30.05R
MEDICINE LODGE   N/A     57  39  51 NE10      30.05R
NEWTON         PTSUNNY   61  36  39 NE14G21   30.06R
PARSONS        CLOUDY    64  38  38 NE9G20    29.98S
WICHITA INTL   CLOUDY    63  34  33 NE20      30.03R
WICHITA JABRA  CLOUDY    62  34  35 NE20G29   30.03R
WICHITA MCCONL CLOUDY    63  35  35 NE21G26   30.03R
WINFIELD       CLOUDY    61  36  39 NE17      30.03R
$$

KSZ007>012-019>026-033>040-048>060-102>105-280000-
NORTHEAST KANSAS

CITY           SKY/WX    TMP DP  RH WIND       PRES   REMARKS
CONCORDIA      PTSUNNY   63  33  32 NE12G23   30.09F
EMPORIA        PTSUNNY   63  36  36 NE16G28   30.03S
LAWRENCE       MOSUNNY   66  35  31 NE14G22   30.06F
MANHATTAN      MOSUNNY   65  36  34 NE18G24   30.06S
MARYSVILLE     PTSUNNY   63  36  36 NE9       30.09S
OLATHE IND     SUNNY     66  35  31 NE12G20   30.05F
OLATHE EXE     MOSUNNY   64  34  32 E15G23    30.04F
SALINA         MOSUNNY   65  34  31 NE17G24   30.07S
TOPEKA BILLARD MOSUNNY   66  34  30 NE16      30.06S
TOPEKA FORBES  MOSUNNY   67  36  31 NE13G21   30.05S
$$



USA.gov is the U.S. government's official web portal to all federal, state and local government web resources and services.